[[{"header":{"parameterUnit":"m.s-1","parameterCategory":1,"la1":30.2991,"la2":30.254,"lo1":-89.0895,"lo2":-89.0444,"dy":0.0017,"dx":0.0017,"nx":28,"ny":28,"refTime":"2024-04-06T09:00:00:Z","depth":0,"parameterNumber":2,"parameterNumberName":"U-component_of_WINDS"},"data":[0,0,0,0,0,0,0,0,0,0,0,0,0,0,0,0,0,0,0,0,0,0,0,0,0,0,0,0,0,0,0,0,0,0,0,0,0,0,0,0,0,0,0,0,0,0,0,0,0,0,0,0,0,0,0,0,0,0,-0.6756,-0.6757,0,-0.6786,-0.6787,-0.6787,-0.6781,-0.6781,-0.678,-0.678,-0.6808,-0.6809,-0.681,0,0,0,0,0,0,0,0,0,0,0,0,0,-0.6692,-0.6693,-0.6756,-0.6757,-0.6757,-0.6786,-0.6787,-0.6787,-0.6781,-0.6781,-0.678,-0.678,-0.6808,-0.6809,-0.681,0,0,0,0,0,0,0,0,0,0,0,0,0,-0.6721,-0.6694,-0.6756,-0.6758,-0.6758,-0.6786,-0.6787,-0.6787,-0.6782,-0.6781,-0.678,-0.6779,-0.6807,-0.6809,-0.6811,-0.6838,0,0,-0.6816,-0.6817,0,0,0,0,0,0,0,0,-0.6719,-0.6723,-0.6757,-0.6758,-0.6758,-0.6779,-0.6774,-0.6804,-0.6782,-0.6773,-0.678,-0.6779,-0.6799,-0.6801,-0.6809,-0.6839,-0.6841,-0.6817,-0.6818,-0.6818,-0.6819,0,0,0,0,0,0,0,-0.6717,-0.6722,-0.6768,-0.6758,-0.6758,-0.6756,-0.6759,-0.678,-0.679,-0.6773,-0.6773,-0.6777,-0.6799,-0.6807,-0.6809,-0.6841,-0.6816,-0.6818,-0.6819,-0.682,-0.6895,-0.6896,0,0,0,0,0,0,-0.6715,-0.672,-0.6767,-0.6769,-0.6736,-0.6758,-0.6762,-0.6773,-0.679,-0.6791,-0.6777,-0.6776,-0.6804,-0.6807,-0.681,-0.6843,-0.6818,-0.682,-0.6821,-0.6894,-0.6895,-0.6896,0,0,0,0,0,0,-0.6713,-0.6719,-0.6766,-0.6744,-0.675,-0.676,-0.6773,-0.6774,-0.6782,-0.6793,-0.6794,-0.6784,-0.6804,-0.6808,-0.6831,-0.6844,-0.6821,-0.6823,-0.6893,-0.6894,-0.6895,-0.6908,0,0,0,0,0,0,-0.6712,-0.6719,-0.673,-0.6745,-0.6751,-0.6787,-0.6774,-0.6775,-0.6786,-0.6785,-0.6799,-0.6801,-0.6803,-0.6828,-0.6833,-0.6846,-0.6824,-0.6892,-0.6894,-0.6895,-0.6907,-0.691,-0.6912,0,0,0,0,0,-0.6709,-0.6732,-0.673,-0.6736,-0.6766,-0.6788,-0.6792,-0.6795,-0.6787,-0.6797,-0.6804,-0.68,-0.6842,-0.6831,-0.6836,-0.685,-0.6891,-0.6893,-0.6895,-0.6905,-0.6909,-0.6912,0,0,0,0,0,0,-0.6717,-0.6734,-0.6732,-0.676,-0.6773,-0.6787,-0.68,-0.6799,-0.6813,-0.6812,-0.6814,-0.6818,-0.6841,-0.6848,-0.6836,-0.6876,-0.6865,-0.6868,-0.6871,-0.6875,-0.6878,-0.6875,-0.6826,0,0,0,0,0,-0.6722,-0.674,-0.6753,-0.6776,-0.6783,-0.6791,-0.68,-0.6802,-0.6815,-0.682,-0.6828,-0.684,-0.6855,-0.6866,-0.6881,-0.6908,-0.691,-0.692,-0.6923,-0.6925,-0.6927,-0.6941,-0.6945,-0.6902,-0.6902,-0.6902,0,0,-0.6732,-0.6744,-0.6754,-0.6778,-0.6788,-0.6805,-0.6795,-0.6814,-0.6826,-0.6822,-0.6845,-0.6852,-0.6865,-0.689,-0.6902,-0.6896,-0.694,-0.6927,-0.6929,-0.693,-0.6944,-0.6948,-0.6951,-0.6904,-0.6903,-0.6903,0,0,-0.676,-0.6771,-0.6791,-0.6801,-0.6817,-0.6822,-0.6827,-0.6841,-0.6846,-0.6869,-0.6866,-0.6881,-0.6908,-0.6917,-0.6926,-0.6957,-0.6953,-0.6962,-0.6976,-0.699,-0.6993,-0.6996,-0.7007,-0.7011,-0.6964,-0.6964,-0.6964,0,-0.677,-0.6797,-0.6801,-0.6821,-0.6831,-0.6829,-0.6849,-0.6859,-0.6878,-0.6884,-0.6878,-0.6912,-0.6921,-0.6948,-0.6956,-0.6963,-0.6968,-0.696,-0.6993,-0.6996,-0.6999,-0.7009,-0.7013,-0.6965,-0.6965,-0.6965,-0.6965,0,-0.6809,-0.6827,-0.6842,-0.6861,-0.6873,-0.6893,-0.6899,-0.6911,-0.6911,-0.6917,-0.694,-0.6951,-0.6968,-0.6974,-0.6975,-0.7002,-0.6998,-0.6992,-0.6981,-0.7004,-0.7013,-0.7017,-0.6966,-0.6966,-0.6966,-0.6965,0,0,-0.6841,-0.6863,-0.6869,-0.6877,-0.6894,-0.6908,-0.6927,-0.6945,-0.6954,-0.6967,-0.6983,-0.7006,-0.7001,-0.701,-0.7012,-0.7024,-0.7047,-0.7017,-0.7017,-0.7022,-0.7077,-0.708,-0.7084,-0.7046,-0.7046,-0.7047,-0.7075,0,-0.687,-0.6905,-0.6909,-0.694,-0.6956,-0.6955,-0.6971,-0.6983,-0.6989,-0.7003,-0.7009,-0.7025,-0.7018,-0.7024,-0.7036,-0.7042,-0.7058,-0.704,-0.7059,-0.706,-0.7055,-0.7089,-0.7093,-0.7119,-0.7079,-0.708,-0.708,0,-0.6908,-0.6923,-0.6955,-0.697,-0.6977,-0.6992,-0.7008,-0.7022,-0.7035,-0.7038,-0.7049,-0.7049,-0.7068,-0.7056,-0.7082,-0.7069,-0.7077,-0.7082,-0.7083,-0.7084,-0.7071,-0.7091,-0.7128,-0.7131,-0.7086,-0.7085,-0.7085,0,-0.6927,-0.6956,-0.6979,-0.6986,-0.7004,-0.7014,-0.7022,-0.7034,-0.7044,-0.7058,-0.7065,-0.708,-0.7089,-0.71,-0.7104,-0.7096,-0.7129,-0.7118,-0.7132,-0.7131,-0.7138,-0.7137,-0.7176,-0.7145,-0.7145,-0.7145,-0.7144,0,-0.6958,-0.6978,-0.6988,-0.7002,-0.7023,-0.7028,-0.7049,-0.7056,-0.7067,-0.7082,-0.7082,-0.7095,-0.71,-0.7114,-0.7117,-0.7137,-0.7141,-0.7144,-0.7144,-0.7143,-0.7143,-0.7148,-0.7146,-0.7146,-0.7145,-0.7145,-0.7145,0,-0.6983,-0.6991,-0.7016,-0.7031,-0.7035,-0.705,-0.7062,-0.7075,-0.7081,-0.71,-0.7104,-0.7113,-0.713,-0.7135,-0.7155,-0.7157,-0.718,-0.7179,-0.7176,-0.7176,-0.7189,-0.7187,-0.7231,-0.7237,-0.7203,-0.7203,-0.7203,0,-0.7002,-0.7017,-0.7034,-0.7044,-0.7053,-0.7069,-0.708,-0.7085,-0.7096,-0.7112,-0.7123,-0.7139,-0.7153,-0.7179,-0.7187,-0.7202,-0.7201,-0.7215,-0.7203,-0.7201,-0.72,-0.7199,-0.72,-0.7217,-0.7217,-0.7218,-0.7218,0,-0.7034,-0.7037,-0.7053,-0.707,-0.7083,-0.7096,-0.7109,-0.7117,-0.7124,-0.7136,-0.7154,-0.7164,-0.7185,-0.7201,-0.7217,-0.7223,-0.7221,-0.7222,-0.7226,-0.7225,-0.7222,-0.7223,-0.7181,-0.7221,-0.722,-0.722,-0.722,-0.722,-0.7056,-0.7069,-0.7084,-0.7101,-0.7111,-0.7124,-0.7137,-0.7144,-0.7159,-0.7177,-0.7179,-0.7198,-0.721,-0.723,-0.7238,-0.7252,-0.7247,-0.7253,-0.7254,-0.7255,-0.7256,-0.722,-0.7255,-0.7255,-0.7254,-0.7254,-0.7254,0,-0.7088,-0.7097,-0.7113,-0.7132,-0.7145,-0.7143,-0.7158,-0.7169,-0.7185,-0.7197,-0.7211,-0.723,-0.7246,-0.7255,-0.7271,-0.728,-0.7279,-0.7284,-0.7283,-0.7284,-0.7259,-0.7254,-0.7284,-0.7284,-0.7284,-0.7284,-0.7284,-0.7284,-0.7106,-0.7128,-0.7133,-0.716,-0.7169,-0.7188,-0.7196,-0.7207,-0.7216,-0.7239,-0.7252,-0.7258,-0.7269,-0.7285,-0.7299,-0.7301,-0.7306,-0.7311,-0.7312,-0.7289,-0.7286,-0.7283,-0.7278,-0.7312,-0.7312,-0.7336,-0.7336,-0.7336]},{"header":{"parameterUnit":"m.s-1","parameterCategory":1,"la1":30.2991,"la2":30.254,"lo1":-89.0895,"lo2":-89.0444,"dy":0.0017,"dx":0.0017,"nx":28,"ny":28,"refTime":"2024-04-06T09:00:00:Z","depth":0,"parameterNumber":3,"parameterNumberName":"V-component_of_WINDS"},"data":[0,0,0,0,0,0,0,0,0,0,0,0,0,0,0,0,0,0,0,0,0,0,0,0,0,0,0,0,0,0,0,0,0,0,0,0,0,0,0,0,0,0,0,0,0,0,0,0,0,0,0,0,0,0,0,0,0,0,-1.7102,-1.7103,0,-1.7104,-1.7104,-1.7104,-1.7074,-1.7074,-1.7073,-1.7072,-1.7073,-1.7074,-1.7075,0,0,0,0,0,0,0,0,0,0,0,0,0,-1.7074,-1.7075,-1.7102,-1.7103,-1.7103,-1.7104,-1.7104,-1.7104,-1.7075,-1.7074,-1.7073,-1.7072,-1.7073,-1.7074,-1.7075,0,0,0,0,0,0,0,0,0,0,0,0,0,-1.7082,-1.7075,-1.7102,-1.7088,-1.7087,-1.7104,-1.7104,-1.7104,-1.7075,-1.7074,-1.7072,-1.7071,-1.7073,-1.7074,-1.7075,-1.7105,0,0,-1.7078,-1.7079,0,0,0,0,0,0,0,0,-1.7082,-1.7083,-1.709,-1.7089,-1.7088,-1.7088,-1.7094,-1.7104,-1.7075,-1.7079,-1.7072,-1.7071,-1.7079,-1.7079,-1.7082,-1.7105,-1.7106,-1.7078,-1.7079,-1.708,-1.708,0,0,0,0,0,0,0,-1.7081,-1.7083,-1.7103,-1.709,-1.7089,-1.7081,-1.7081,-1.7096,-1.7086,-1.7079,-1.7077,-1.7077,-1.7078,-1.7081,-1.7082,-1.7106,-1.7078,-1.7079,-1.708,-1.7081,-1.7152,-1.7154,0,0,0,0,0,0,-1.7083,-1.7083,-1.7103,-1.7103,-1.7082,-1.7083,-1.7083,-1.7089,-1.7086,-1.7084,-1.7078,-1.7076,-1.708,-1.7081,-1.7082,-1.7116,-1.708,-1.7081,-1.7081,-1.7151,-1.7153,-1.7154,0,0,0,0,0,0,-1.7082,-1.7085,-1.7103,-1.7092,-1.7094,-1.7085,-1.7092,-1.709,-1.7093,-1.7085,-1.7083,-1.7084,-1.7079,-1.708,-1.71,-1.7116,-1.7081,-1.7082,-1.715,-1.7152,-1.7153,-1.7186,0,0,0,0,0,0,-1.7081,-1.7085,-1.7096,-1.7093,-1.7095,-1.7121,-1.7093,-1.709,-1.7095,-1.7092,-1.7089,-1.7088,-1.7078,-1.7098,-1.7101,-1.7117,-1.7083,-1.7148,-1.7151,-1.7153,-1.7183,-1.7189,-1.7193,0,0,0,0,0,-1.708,-1.7106,-1.7097,-1.71,-1.7109,-1.7122,-1.7123,-1.7111,-1.7096,-1.7108,-1.7103,-1.7088,-1.7114,-1.71,-1.7103,-1.712,-1.7147,-1.715,-1.7153,-1.7181,-1.7188,-1.7193,0,0,0,0,0,0,-1.7112,-1.7105,-1.7095,-1.712,-1.7122,-1.7117,-1.7131,-1.7119,-1.7124,-1.7121,-1.7106,-1.7106,-1.7127,-1.7126,-1.711,-1.7149,-1.7128,-1.7131,-1.7149,-1.7155,-1.716,-1.7159,-1.7084,0,0,0,0,0,-1.7122,-1.7133,-1.7126,-1.7149,-1.715,-1.714,-1.7145,-1.7136,-1.7137,-1.7138,-1.7134,-1.7135,-1.7143,-1.7149,-1.7157,-1.7184,-1.7182,-1.7196,-1.7201,-1.7206,-1.7208,-1.7221,-1.7227,-1.7163,-1.7163,-1.7163,0,0,-1.7142,-1.714,-1.7148,-1.7155,-1.7155,-1.7166,-1.7141,-1.7154,-1.7162,-1.714,-1.7157,-1.7154,-1.7155,-1.7178,-1.7187,-1.7177,-1.7226,-1.7209,-1.7212,-1.7213,-1.7225,-1.7231,-1.7236,-1.7165,-1.7165,-1.7164,0,0,-1.7184,-1.7184,-1.7202,-1.7203,-1.7203,-1.7197,-1.7201,-1.7198,-1.7195,-1.7212,-1.7195,-1.7205,-1.722,-1.722,-1.7222,-1.7265,-1.7251,-1.7268,-1.7293,-1.7306,-1.7311,-1.7315,-1.7329,-1.7334,-1.7271,-1.7271,-1.7271,0,-1.721,-1.7226,-1.7213,-1.7227,-1.723,-1.7211,-1.7228,-1.723,-1.7232,-1.7235,-1.7223,-1.7241,-1.724,-1.7262,-1.7272,-1.7275,-1.7279,-1.7267,-1.7311,-1.7315,-1.7319,-1.7332,-1.7337,-1.7273,-1.7272,-1.7272,-1.7272,0,-1.7256,-1.7267,-1.7282,-1.7285,-1.729,-1.7306,-1.7295,-1.7302,-1.7292,-1.7287,-1.7304,-1.7303,-1.7309,-1.7313,-1.7305,-1.7334,-1.7327,-1.7314,-1.7292,-1.7327,-1.7339,-1.7344,-1.7275,-1.7275,-1.7274,-1.7274,0,0,-1.7318,-1.7313,-1.7318,-1.7319,-1.7317,-1.7326,-1.7341,-1.7347,-1.7352,-1.7355,-1.7366,-1.7379,-1.7366,-1.7369,-1.736,-1.7371,-1.7403,-1.7356,-1.7356,-1.7363,-1.7434,-1.7443,-1.7449,-1.7394,-1.7395,-1.7396,-1.7433,0,-1.7358,-1.7382,-1.7371,-1.7397,-1.7406,-1.7388,-1.74,-1.7401,-1.7396,-1.7404,-1.7398,-1.7407,-1.739,-1.7392,-1.7402,-1.7397,-1.7417,-1.7394,-1.7404,-1.7404,-1.7403,-1.7455,-1.7465,-1.75,-1.7438,-1.7439,-1.7439,0,-1.7407,-1.7411,-1.7438,-1.7434,-1.7437,-1.7449,-1.7453,-1.7461,-1.746,-1.7456,-1.7459,-1.7447,-1.7461,-1.7441,-1.7459,-1.7444,-1.7447,-1.7445,-1.7446,-1.7446,-1.7423,-1.7455,-1.7511,-1.7516,-1.7447,-1.7446,-1.7446,0,-1.7448,-1.746,-1.7477,-1.7478,-1.7474,-1.7483,-1.7482,-1.748,-1.7484,-1.7488,-1.749,-1.7495,-1.7498,-1.7502,-1.7492,-1.7479,-1.7511,-1.749,-1.7507,-1.7507,-1.7514,-1.7513,-1.7571,-1.7519,-1.7519,-1.7518,-1.7518,0,-1.7493,-1.7509,-1.7495,-1.7505,-1.7523,-1.751,-1.7528,-1.7525,-1.7524,-1.7533,-1.7518,-1.7527,-1.7513,-1.7521,-1.7513,-1.7529,-1.753,-1.7527,-1.7524,-1.7527,-1.7527,-1.7528,-1.7525,-1.752,-1.752,-1.7519,-1.7519,0,-1.754,-1.7532,-1.7549,-1.7543,-1.7542,-1.7556,-1.7551,-1.756,-1.7554,-1.7566,-1.7568,-1.7559,-1.7567,-1.7558,-1.7565,-1.756,-1.758,-1.7575,-1.758,-1.7578,-1.7595,-1.7593,-1.7653,-1.766,-1.7605,-1.7606,-1.7606,0,-1.7569,-1.7581,-1.7577,-1.7581,-1.7581,-1.7589,-1.7593,-1.7581,-1.7585,-1.7586,-1.7595,-1.7601,-1.7606,-1.7619,-1.7613,-1.7619,-1.7612,-1.7633,-1.7613,-1.7615,-1.7611,-1.761,-1.761,-1.7637,-1.7638,-1.7638,-1.7639,0,-1.762,-1.7614,-1.762,-1.7625,-1.7629,-1.7632,-1.7634,-1.7639,-1.7626,-1.7632,-1.764,-1.7643,-1.765,-1.7657,-1.766,-1.7659,-1.7646,-1.7645,-1.7649,-1.7652,-1.7653,-1.7651,-1.759,-1.7644,-1.7643,-1.7643,-1.7642,-1.7642,-1.7657,-1.7667,-1.7665,-1.7672,-1.7672,-1.7674,-1.7681,-1.7677,-1.7683,-1.7687,-1.768,-1.769,-1.7689,-1.7692,-1.7692,-1.7699,-1.769,-1.7696,-1.7697,-1.7699,-1.77,-1.7654,-1.77,-1.77,-1.77,-1.7699,-1.7699,0,-1.7706,-1.7704,-1.771,-1.7713,-1.7718,-1.7706,-1.7707,-1.7712,-1.7721,-1.7721,-1.7725,-1.7734,-1.774,-1.7735,-1.774,-1.7746,-1.774,-1.7748,-1.7746,-1.7746,-1.7709,-1.7704,-1.7752,-1.7752,-1.7752,-1.7752,-1.7752,-1.7752,-1.7732,-1.7747,-1.7741,-1.7756,-1.7754,-1.7762,-1.7764,-1.7765,-1.7765,-1.7775,-1.778,-1.7776,-1.7774,-1.7779,-1.7783,-1.7782,-1.7784,-1.7793,-1.7789,-1.7754,-1.7749,-1.7744,-1.7739,-1.7793,-1.7794,-1.7825,-1.7825,-1.7825]}]]